This is the latest recevied weather packets stored in our database for station/object AE0NK. If no packets are shown the sender has not sent any weather packets the latest 10 day(s).
| Time | Temp. | Humidity | Pressure | Rain* | Wind** | Luminosity | Snow |
|---|---|---|---|---|---|---|---|
| 1777524200 | 7.22° C | 64% | 1018 hPa | 0 mm | - | 0 W/m² | - |
| 1777523897 | 7.22° C | 64% | 1018 hPa | 0 mm | - | 0 W/m² | - |
| 1777523595 | 7.78° C | 64% | 1018.1 hPa | 0 mm | - | 0 W/m² | - |
| 1777523292 | 7.78° C | 64% | 1018.1 hPa | 0 mm | - | 0 W/m² | - |
| 1777523010 | 7.78° C | 61% | 1018.1 hPa | 0 mm | - | 0 W/m² | - |
| 1777522708 | 7.78° C | 58% | 1018 hPa | 0 mm | - | 0 W/m² | - |
| 1777522405 | 7.78° C | 58% | 1018 hPa | 0 mm | - | 0 W/m² | - |
| 1777522103 | 7.78° C | 55% | 1018 hPa | 0 mm | - | 0 W/m² | - |
| 1777521801 | 7.78° C | 54% | 1018 hPa | 0 mm | - | 0 W/m² | - |
| 1777521496 | 7.78° C | 54% | 1018 hPa | 0 mm | - | 0 W/m² | - |
| 1777521193 | 8.33° C | 56% | 1018.1 hPa | 0 mm | - | 0 W/m² | - |
| 1777520910 | 8.33° C | 56% | 1018.1 hPa | 0 mm | - | 0 W/m² | - |
| 1777520607 | 8.33° C | 54% | 1018.1 hPa | 0 mm | - | 0 W/m² | - |
| 1777520305 | 8.33° C | 53% | 1018.2 hPa | 0 mm | - | 0 W/m² | - |
| 1777520004 | 8.33° C | 53% | 1018.1 hPa | 0 mm | - | 0 W/m² | - |
| 1777519702 | 8.33° C | 55% | 1018.1 hPa | 0 mm | - | 0 W/m² | - |
| 1777519401 | 8.89° C | 54% | 1018.1 hPa | 0 mm | - | 0 W/m² | - |
| 1777519117 | 8.89° C | 55% | 1018.1 hPa | 0 mm | - | 0 W/m² | - |
| 1777518809 | 8.89° C | 55% | 1018.3 hPa | 0 mm | - | 0 W/m² | - |
| 1777518507 | 8.89° C | 53% | 1018.2 hPa | 0 mm | - | 0 W/m² | - |
| 1777518204 | 8.89° C | 53% | 1018.3 hPa | 0 mm | - | 0 W/m² | - |
| 1777517901 | 9.44° C | 52% | 1018.2 hPa | 0 mm | - | 0 W/m² | - |
| 1777517618 | 9.44° C | 50% | 1018.1 hPa | 0 mm | - | 0 W/m² | - |
| 1777517307 | 9.44° C | 49% | 1018.2 hPa | 0 mm | - | 0 W/m² | - |
| 1777517005 | 10° C | 50% | 1018.2 hPa | 0 mm | - | 0 W/m² | - |
* Rain latest hour (hover to see other rain measurements)
** Current wind speed in m/s (hover to see current wind gust speed)